Regional Weather Roundup
Issued by NWS Green Bay, WI

Home | Current Version | Previous Version | Graphics & Text | Print | Product List | Glossary Off
Versions: 1 2 3 4 5 6 7 8 9 10 11 12 13 14 15 16 17 18 19 20 21 22 23 24 25 26 27 28 29 30 31 32 33 34 35 36 37 38 39 40 41 42 43 44 45 46 47 48 49 50

000
ASUS43 KGRB 221000
RWRGRB

NORTH-CENTRAL AND NORTHEAST WISCONSIN REGIONAL WEATHER ROUNDUP
NATIONAL WEATHER SERVICE GREEN BAY WI
400 AM CST SUN JAN 22 2017

WIZ005-009-010>012-018-019-221100-
NORTH CENTRAL WISCONSIN

CITY           SKY/WX    TMP DP  RH WIND       PRES   REMARKS
IRONWOOD       FOG       33  33 100 SW3       29.55S VSB 1/4
MANITOWISH WTR NOT AVBL
ARBOR VITAE    NOT AVBL
EAGLE RIVER    NOT AVBL
LAND O LAKES   NOT AVBL
RHINELANDER    FOG       35  35 100 CALM      29.53S VSB 1/4
PHILLIPS       FOG       34  34 100 CALM      29.53S VSB 1/2
ANTIGO         NOT AVBL
TOMAHAWK       NOT AVBL
MERRILL        FOG       34  34 100 CALM        N/A  VSB 1/2
$$

WIZ013-073-221100-
NORTHEAST WISCONSIN

CITY           SKY/WX    TMP DP  RH WIND       PRES   REMARKS
IRON MOUNTAIN  FOG       34  32  92 CALM      29.53S VSB 3/4
MARINETTE      NOT AVBL
$$

WIZ017-030-035>037-045-221100-
CENTRAL WISCONSIN

CITY           SKY/WX    TMP DP  RH WIND       PRES   REMARKS
MEDFORD        NOT AVBL
WAUSAU         FOG       35  35 100 CALM      29.53S VSB 1/2
MOSINEE        NOT AVBL
MARSHFIELD     FOG       35  32  88 W3        29.53S VSB 1/4
WISC RAPIDS    FOG       37  37 100 SW3       29.56S VSB 1/2
STEVENS POINT  NOT AVBL
WAUPACA        NOT AVBL
SHAWANO        NOT AVBL
CLINTONVILLE   FOG       34  32  93 CALM      29.56S VSB 1/4
WAUTOMA        CLOUDY    37  36  96 W6        29.57S FOG
$$

WIZ038-039-048-051-221100-
FOX VALLEY

CITY           SKY/WX    TMP DP  RH WIND       PRES   REMARKS
NWS GREEN BAY  FOG       36  36 100 CALM      29.56S VSB 1/4
APPLETON       NOT AVBL
OSHKOSH        FOG       37  36  96 CALM      29.55S VSB 1/2
FOND DU LAC    FOG       39  37  92 S5        29.56S VSB 1/4
$$

WIZ022-050-052-221100-
EAST CENTRAL WISCONSIN

CITY           SKY/WX    TMP DP  RH WIND       PRES   REMARKS
EPHRAIM        NOT AVBL
WASHINGTON ISL NOT AVBL
STURGEON BAY   FOG       37  36  96 CALM      29.57S VSB 1/4
MANITOWOC      NOT AVBL
SHEBOYGAN      CLOUDY    38  38 100 CALM      29.57S FOG
$$

LMZ563-521-522-541>543-221100-
LAKESHORE

STATION/POSITION TIME  TEMP    WIND        PRES    VSBY  WAVE
                       AIR SEA DIR/SP/G                  HT/PER
                 (UTC) (F)     (DEG/KT/KT) (MB)    (MI)  (FT/S)
SHEBOYGAN LKSHOR 0900   40     220/  7/  7 1001.5S
KEWAUNEE LKSHORE 0930   37      CALM  /  3 1001.1R
NORTHPORT PIER   0930   37     290/  2/  4 1001.4S
SISTER BAY LKSHO 0905   36        CALM       N/A
MENOMINEE LKSHOR 0930          210/  2/  3 1000.5S
$$




USA.gov is the U.S. government's official web portal to all federal, state and local government web resources and services.